User: anonymous   Login
Location: Unspecified
(0.0000°N, 0.0000°E)
Time: 21:29:12
(UTC+01:00)
Language:

GPS 2-05 Rocket1 - Orbit

View from above orbital plane
View from above orbital plane
View from above satellite
View from above satellite

Ground track
Ground track

The orbit data is extracted from the following two-line orbital elements,

1 20362U 89097B   16042.83608076  .00024518  00000-0  51823-3 0  9999
2 20362  35.6096 176.9200 0074258 126.6896   5.6950 15.41266045423663
Epoch (UTC): 11 February 2016 20:03:57
Eccentricity: 0.0074258
inclination: 35.6096°
perigee height: 392 km
apogee height: 493 km
right ascension of ascending node: 176.9200°
argument of perigee: 126.6896°
revolutions per day: 15.41266045
mean anomaly at epoch: 5.6950°
orbit number at epoch: 42366

The dashed part of the orbit path shows where the satellite is in the earth's shadow,  

DLR